[[{"header":{"parameterUnit":"m.s-1","parameterCategory":1,"la1":30.2991,"la2":30.254,"lo1":-89.0895,"lo2":-89.0444,"dx":0.0017,"dy":0.0017,"nx":28,"ny":28,"refTime":"2023-01-27T15:00:00:Z","depth":0,"parameterNumber":2,"parameterNumberName":"U-component_of_WINDS"},"data":[0,0,0,0,0,0,0,0,0,0,0,0,0,0,0,0,0,0,0,0,0,0,0,0,0,0,0,0,0,0,0,0,0,0,0,0,0,0,0,0,0,0,0,0,0,0,0,0,0,0,0,0,0,0,0,0,0,0,-3.0084,-3.0085,0,-3.0137,-3.0138,-3.0139,-3.006,-3.0057,-3.0054,-3.0052,-3.0108,-3.0112,-3.0116,0,0,0,0,0,0,0,0,0,0,0,0,0,-2.9915,-2.9919,-3.0084,-3.0085,-3.0085,-3.0137,-3.0138,-3.0139,-3.006,-3.0057,-3.0054,-3.005,-3.0106,-3.0111,-3.0116,0,0,0,0,0,0,0,0,0,0,0,0,0,-2.9981,-2.992,-3.0084,-3.0052,-3.005,-3.0137,-3.0138,-3.0139,-3.0061,-3.0057,-3.0053,-3.0049,-3.0105,-3.0111,-3.0117,-3.0238,0,0,-3.0135,-3.0138,0,0,0,0,0,0,0,0,-2.9977,-2.9987,-3.0056,-3.0055,-3.0052,-3.0088,-3.0099,-3.0172,-3.0062,-3.0057,-3.0052,-3.0047,-3.0104,-3.011,-3.0129,-3.024,-3.0243,-3.0136,-3.014,-3.0142,-3.0144,0,0,0,0,0,0,0,-2.9973,-2.9984,-3.0105,-3.0057,-3.0055,-3.0036,-3.0041,-3.0113,-3.0103,-3.0057,-3.0051,-3.0059,-3.0103,-3.0124,-3.013,-3.0243,-3.0136,-3.0141,-3.0145,-3.0147,-3.0457,-3.0461,0,0,0,0,0,0,-2.9972,-2.9981,-3.0103,-3.0107,-3.0004,-3.0042,-3.0048,-3.0081,-3.0102,-3.0102,-3.0062,-3.0055,-3.0115,-3.0123,-3.0132,-3.0276,-3.0142,-3.0148,-3.0151,-3.0452,-3.0458,-3.0463,0,0,0,0,0,0,-2.9968,-2.9983,-3.0101,-3.0042,-3.0056,-3.005,-3.0087,-3.0084,-3.0105,-3.0106,-3.0104,-3.0086,-3.0112,-3.0123,-3.0212,-3.0276,-3.0151,-3.0156,-3.0447,-3.0454,-3.046,-3.0564,0,0,0,0,0,0,-2.9964,-2.9983,-3.0028,-3.0044,-3.0059,-3.0181,-3.0091,-3.0088,-3.0116,-3.0106,-3.0128,-3.0127,-3.011,-3.0203,-3.0218,-3.0283,-3.0161,-3.0441,-3.045,-3.0458,-3.0555,-3.0573,-3.0589,0,0,0,0,0,-2.9958,-3.0055,-3.0031,-3.0046,-3.0116,-3.0184,-3.0193,-3.0171,-3.0121,-3.0167,-3.0168,-3.0127,-3.0267,-3.0213,-3.0229,-3.0296,-3.0437,-3.0448,-3.0458,-3.0547,-3.057,-3.0589,0,0,0,0,0,0,-3.0048,-3.0057,-3.003,-3.0135,-3.016,-3.0171,-3.0228,-3.0196,-3.0235,-3.0225,-3.0196,-3.0202,-3.0297,-3.0305,-3.0245,-3.0415,-3.0344,-3.0358,-3.0406,-3.0428,-3.0445,-3.0441,-3.0166,0,0,0,0,0,-3.0079,-3.0134,-3.0139,-3.0231,-3.0245,-3.0235,-3.0263,-3.0244,-3.0269,-3.0279,-3.0286,-3.0312,-3.0361,-3.0395,-3.0441,-3.0555,-3.0559,-3.0609,-3.0627,-3.0641,-3.0654,-3.0716,-3.0739,-3.0496,-3.0496,-3.0496,0,0,-3.0146,-3.0158,-3.0194,-3.0249,-3.0266,-3.0324,-3.0244,-3.0308,-3.035,-3.0288,-3.0373,-3.0379,-3.0406,-3.0508,-3.0554,-3.0518,-3.0721,-3.0654,-3.0665,-3.067,-3.0729,-3.0752,-3.0772,-3.0503,-3.0502,-3.0501,0,0,-3.0297,-3.0311,-3.039,-3.0408,-3.0434,-3.0427,-3.0446,-3.0463,-3.0465,-3.0549,-3.0504,-3.0554,-3.064,-3.0661,-3.0683,-3.0843,-3.0807,-3.0858,-3.095,-3.101,-3.103,-3.1046,-3.1104,-3.1125,-3.0871,-3.0871,-3.0871,0,-3.0377,-3.0461,-3.0434,-3.0502,-3.0528,-3.0474,-3.0554,-3.0574,-3.0614,-3.0633,-3.0593,-3.07,-3.0714,-3.0821,-3.086,-3.088,-3.0901,-3.0856,-3.1029,-3.1045,-3.1061,-3.1116,-3.1137,-3.0877,-3.0877,-3.0876,-3.0875,0,-3.0558,-3.0617,-3.0678,-3.0718,-3.0751,-3.0824,-3.0809,-3.0846,-3.0824,-3.0821,-3.0908,-3.0923,-3.0971,-3.0995,-3.0974,-3.11,-3.1077,-3.1033,-3.0961,-3.109,-3.1142,-3.1162,-3.0886,-3.0884,-3.0882,-3.0881,0,0,-3.0767,-3.0792,-3.0815,-3.0832,-3.0858,-3.0903,-3.0974,-3.1021,-3.1054,-3.1083,-3.1143,-3.1217,-3.1177,-3.1202,-3.1183,-3.1237,-3.1363,-3.1186,-3.1186,-3.122,-3.1504,-3.1537,-3.1562,-3.1339,-3.1343,-3.1346,-3.1502,0,-3.0918,-3.1041,-3.102,-3.1139,-3.1194,-3.1144,-3.1206,-3.1229,-3.1228,-3.1275,-3.1274,-3.1328,-3.127,-3.1285,-3.1336,-3.1337,-3.142,-3.1325,-3.1395,-3.1398,-3.1391,-3.1589,-3.1624,-3.1771,-3.1521,-3.1525,-3.1527,0,-3.1111,-3.1148,-3.1273,-3.129,-3.1313,-3.1369,-3.1411,-3.1456,-3.1481,-3.1476,-3.1505,-3.1476,-3.1548,-3.1474,-3.1573,-3.1509,-3.1536,-3.1542,-3.1547,-3.1553,-3.1471,-3.1601,-3.1816,-3.1839,-3.1558,-3.1556,-3.1554,0,-3.1253,-3.1333,-3.1419,-3.1436,-3.1457,-3.1498,-3.151,-3.153,-3.156,-3.1596,-3.1616,-3.166,-3.1685,-3.1721,-3.1705,-3.1653,-3.1807,-3.1732,-3.1807,-3.1807,-3.1842,-3.1841,-3.2066,-3.1858,-3.1858,-3.1858,-3.1857,0,-3.1424,-3.1503,-3.1483,-3.1536,-3.1623,-3.1597,-3.1684,-3.1689,-3.1708,-3.1762,-3.1721,-3.1772,-3.1747,-3.1797,-3.1785,-3.187,-3.1881,-3.188,-3.1876,-3.1884,-3.1885,-3.1902,-3.1892,-3.1863,-3.1862,-3.1861,-3.186,0,-3.1597,-3.1587,-3.1677,-3.169,-3.1695,-3.1759,-3.1771,-3.1821,-3.1816,-3.1885,-3.1899,-3.1894,-3.195,-3.1937,-3.1999,-3.1991,-3.2097,-3.208,-3.2089,-3.2086,-3.2161,-3.2155,-3.2407,-3.2439,-3.221,-3.2212,-3.2214,0,-3.1708,-3.1768,-3.1788,-3.182,-3.1835,-3.1888,-3.1918,-3.1895,-3.1929,-3.1962,-3.2008,-3.206,-3.2101,-3.2194,-3.2195,-3.2242,-3.2227,-3.2312,-3.2234,-3.224,-3.2229,-3.2226,-3.2233,-3.2328,-3.233,-3.2332,-3.2334,0,-3.1906,-3.1898,-3.1943,-3.1987,-3.2025,-3.2058,-3.2088,-3.2117,-3.2097,-3.2136,-3.2193,-3.2225,-3.2288,-3.2341,-3.2385,-3.2396,-3.2363,-3.2359,-3.2379,-3.2388,-3.2391,-3.2392,-3.2133,-3.2353,-3.2351,-3.235,-3.2349,-3.2348,-3.2052,-3.2103,-3.2125,-3.2177,-3.2197,-3.2226,-3.2274,-3.2276,-3.2323,-3.2372,-3.2356,-3.2421,-3.2445,-3.25,-3.2517,-3.2568,-3.2536,-3.2565,-3.2572,-3.258,-3.259,-3.2382,-3.2576,-3.2575,-3.2575,-3.2574,-3.2574,0,-3.2249,-3.2261,-3.2309,-3.2352,-3.2393,-3.2357,-3.2388,-3.2425,-3.2483,-3.2507,-3.2549,-3.2615,-3.2666,-3.2672,-3.272,-3.276,-3.2746,-3.2774,-3.2771,-3.2775,-3.2615,-3.2593,-3.2784,-3.2784,-3.2784,-3.2784,-3.2784,-3.2784,-3.2357,-3.2441,-3.2436,-3.253,-3.2541,-3.2605,-3.2626,-3.2652,-3.2672,-3.2747,-3.279,-3.2793,-3.2811,-3.286,-3.2906,-3.2906,-3.2927,-3.2961,-3.2956,-3.2807,-3.2786,-3.2766,-3.2745,-3.2965,-3.2965,-3.3111,-3.3112,-3.3113]},{"header":{"parameterUnit":"m.s-1","parameterCategory":1,"la1":30.2991,"la2":30.254,"lo1":-89.0895,"lo2":-89.0444,"dx":0.0017,"dy":0.0017,"nx":28,"ny":28,"refTime":"2023-01-27T15:00:00:Z","depth":0,"parameterNumber":3,"parameterNumberName":"V-component_of_WINDS"},"data":[0,0,0,0,0,0,0,0,0,0,0,0,0,0,0,0,0,0,0,0,0,0,0,0,0,0,0,0,0,0,0,0,0,0,0,0,0,0,0,0,0,0,0,0,0,0,0,0,0,0,0,0,0,0,0,0,0,0,-1.3754,-1.3754,0,-1.3789,-1.379,-1.379,-1.3749,-1.3748,-1.3746,-1.3745,-1.3782,-1.3784,-1.3787,0,0,0,0,0,0,0,0,0,0,0,0,0,-1.365,-1.3652,-1.3754,-1.3754,-1.3754,-1.3789,-1.379,-1.379,-1.375,-1.3748,-1.3746,-1.3744,-1.3781,-1.3784,-1.3787,0,0,0,0,0,0,0,0,0,0,0,0,0,-1.3691,-1.3652,-1.3754,-1.3738,-1.3737,-1.3789,-1.379,-1.379,-1.375,-1.3748,-1.3746,-1.3743,-1.378,-1.3784,-1.3787,-1.3856,0,0,-1.3798,-1.38,0,0,0,0,0,0,0,0,-1.3689,-1.3695,-1.374,-1.374,-1.3739,-1.3763,-1.3767,-1.3812,-1.3751,-1.3745,-1.3745,-1.3742,-1.3777,-1.3781,-1.3793,-1.3857,-1.3859,-1.3799,-1.3801,-1.3802,-1.3803,0,0,0,0,0,0,0,-1.3686,-1.3693,-1.3768,-1.3741,-1.374,-1.373,-1.3733,-1.3775,-1.3774,-1.3746,-1.3743,-1.3748,-1.3776,-1.3789,-1.3793,-1.386,-1.3799,-1.3802,-1.3804,-1.3805,-1.3981,-1.3984,0,0,0,0,0,0,-1.3685,-1.3691,-1.3767,-1.3769,-1.3707,-1.3733,-1.3737,-1.3757,-1.3773,-1.3773,-1.3749,-1.3746,-1.3784,-1.3789,-1.3795,-1.3876,-1.3802,-1.3806,-1.3808,-1.3979,-1.3982,-1.3985,0,0,0,0,0,0,-1.3683,-1.3692,-1.3765,-1.3729,-1.3738,-1.3738,-1.3761,-1.3759,-1.3772,-1.3776,-1.3776,-1.3763,-1.3783,-1.3789,-1.3841,-1.3876,-1.3807,-1.3811,-1.3976,-1.398,-1.3983,-1.4039,0,0,0,0,0,0,-1.368,-1.3691,-1.3718,-1.373,-1.374,-1.3811,-1.3763,-1.3762,-1.3778,-1.3774,-1.3789,-1.3789,-1.3781,-1.3835,-1.3844,-1.388,-1.3814,-1.3973,-1.3978,-1.3982,-1.4034,-1.4044,-1.4053,0,0,0,0,0,-1.3676,-1.3732,-1.3719,-1.3729,-1.3773,-1.3813,-1.3819,-1.3809,-1.3781,-1.3808,-1.381,-1.3789,-1.3871,-1.3841,-1.3851,-1.3888,-1.3971,-1.3976,-1.3982,-1.403,-1.4042,-1.4052,0,0,0,0,0,0,-1.3724,-1.3733,-1.3719,-1.3781,-1.3796,-1.3806,-1.3839,-1.3822,-1.3846,-1.3841,-1.3827,-1.3831,-1.3886,-1.3892,-1.3858,-1.3955,-1.3916,-1.3924,-1.3949,-1.3961,-1.397,-1.3968,-1.3817,0,0,0,0,0,-1.3742,-1.3774,-1.378,-1.3834,-1.3842,-1.3839,-1.3857,-1.3848,-1.3863,-1.387,-1.3876,-1.3892,-1.3922,-1.3942,-1.3969,-1.4034,-1.4037,-1.4064,-1.4074,-1.4082,-1.4089,-1.4124,-1.4136,-1.4003,-1.4003,-1.4003,0,0,-1.3779,-1.3788,-1.3809,-1.3844,-1.3855,-1.3888,-1.3845,-1.3883,-1.3908,-1.3876,-1.3925,-1.393,-1.3947,-1.4005,-1.4031,-1.4012,-1.4126,-1.4089,-1.4095,-1.4098,-1.4131,-1.4143,-1.4154,-1.4007,-1.4006,-1.4006,0,0,-1.3863,-1.3873,-1.3919,-1.3931,-1.3948,-1.3945,-1.3956,-1.3969,-1.3971,-1.4019,-1.3996,-1.4025,-1.4076,-1.4089,-1.4102,-1.4191,-1.4172,-1.42,-1.425,-1.4284,-1.4294,-1.4304,-1.4336,-1.4347,-1.4207,-1.4207,-1.4207,0,-1.3907,-1.3957,-1.3944,-1.3984,-1.3999,-1.3971,-1.4017,-1.4029,-1.4055,-1.4066,-1.4044,-1.4107,-1.4117,-1.4178,-1.4199,-1.4211,-1.4223,-1.4199,-1.4294,-1.4303,-1.4311,-1.4342,-1.4354,-1.421,-1.421,-1.421,-1.4209,0,-1.401,-1.4045,-1.4079,-1.4105,-1.4124,-1.4167,-1.416,-1.4181,-1.417,-1.417,-1.422,-1.423,-1.4259,-1.4272,-1.4262,-1.4332,-1.4319,-1.4296,-1.4257,-1.4328,-1.4356,-1.4367,-1.4215,-1.4214,-1.4213,-1.4212,0,0,-1.4127,-1.4144,-1.4157,-1.4168,-1.4184,-1.4211,-1.4251,-1.4279,-1.4298,-1.4316,-1.435,-1.4393,-1.4371,-1.4386,-1.4377,-1.4407,-1.4476,-1.4379,-1.438,-1.4398,-1.4555,-1.4573,-1.4587,-1.4463,-1.4466,-1.4467,-1.4553,0,-1.4212,-1.4283,-1.4272,-1.4341,-1.4373,-1.4346,-1.4381,-1.4395,-1.4396,-1.4423,-1.4423,-1.4454,-1.4423,-1.4432,-1.446,-1.4462,-1.4508,-1.4456,-1.4495,-1.4497,-1.4493,-1.4601,-1.4621,-1.4702,-1.4564,-1.4566,-1.4567,0,-1.4321,-1.4343,-1.4415,-1.4426,-1.4439,-1.4471,-1.4495,-1.4522,-1.4536,-1.4535,-1.4551,-1.4536,-1.4577,-1.4536,-1.4592,-1.4556,-1.4572,-1.4575,-1.4578,-1.4582,-1.4537,-1.4609,-1.4727,-1.474,-1.4585,-1.4583,-1.4582,0,-1.44,-1.4447,-1.4496,-1.4506,-1.452,-1.4543,-1.455,-1.4563,-1.458,-1.4601,-1.4612,-1.4638,-1.4652,-1.4672,-1.4665,-1.4636,-1.4722,-1.4681,-1.4722,-1.4722,-1.4742,-1.4741,-1.4865,-1.4751,-1.4751,-1.475,-1.475,0,-1.4497,-1.4542,-1.4532,-1.4562,-1.4611,-1.4598,-1.4648,-1.4651,-1.4662,-1.4693,-1.4671,-1.4699,-1.4687,-1.4715,-1.4709,-1.4756,-1.4762,-1.4762,-1.476,-1.4765,-1.4765,-1.4776,-1.477,-1.4754,-1.4753,-1.4752,-1.4752,0,-1.4594,-1.4589,-1.464,-1.4649,-1.4652,-1.4688,-1.4696,-1.4724,-1.4722,-1.4761,-1.4769,-1.4767,-1.4798,-1.4792,-1.4827,-1.4823,-1.4882,-1.4873,-1.4878,-1.4876,-1.4918,-1.4914,-1.5054,-1.5071,-1.4944,-1.4946,-1.4947,0,-1.4656,-1.469,-1.4702,-1.4721,-1.473,-1.476,-1.4777,-1.4765,-1.4784,-1.4804,-1.483,-1.4859,-1.4882,-1.4934,-1.4936,-1.4962,-1.4954,-1.5001,-1.4958,-1.4961,-1.4955,-1.4954,-1.4957,-1.501,-1.5011,-1.5012,-1.5013,0,-1.4768,-1.4764,-1.479,-1.4815,-1.4836,-1.4855,-1.4873,-1.4889,-1.4878,-1.4901,-1.4933,-1.4951,-1.4986,-1.5016,-1.504,-1.5047,-1.5029,-1.5026,-1.5038,-1.5043,-1.5045,-1.5045,-1.4902,-1.5024,-1.5023,-1.5022,-1.5021,-1.5021,-1.485,-1.4879,-1.4892,-1.4922,-1.4933,-1.4949,-1.4976,-1.4978,-1.5004,-1.5032,-1.5023,-1.506,-1.5073,-1.5104,-1.5114,-1.5142,-1.5125,-1.514,-1.5145,-1.5149,-1.5155,-1.5039,-1.5146,-1.5146,-1.5146,-1.5145,-1.5145,0,-1.4961,-1.4968,-1.4995,-1.502,-1.5043,-1.5023,-1.5041,-1.5061,-1.5094,-1.5108,-1.5131,-1.5168,-1.5196,-1.5199,-1.5226,-1.5248,-1.5241,-1.5256,-1.5255,-1.5257,-1.5168,-1.5156,-1.5262,-1.5262,-1.5262,-1.5262,-1.5262,-1.5262,-1.5022,-1.507,-1.5067,-1.512,-1.5127,-1.5162,-1.5174,-1.5189,-1.52,-1.5242,-1.5266,-1.5267,-1.5277,-1.5304,-1.5329,-1.533,-1.5341,-1.536,-1.5357,-1.5275,-1.5263,-1.5252,-1.5241,-1.5362,-1.5362,-1.5443,-1.5444,-1.5444]}]]